Hourly Weather Roundup
Issued by NWS Central Illinois

Home | Current Version | Previous Version | Text Only | Print | Product List | Glossary On
Versions: 1 2 3 4 5 6 7 8 9 10 11 12 13 14 15 16 17 18 19 20 21 22 23 24 25 26 27 28 29 30 31 32 33 34 35 36 37 38 39 40 41 42 43 44 45 46 47 48 49 50
000
NZUS43 KILX 241510
HWRILX

Area Weather Roundup
National Weather Service Lincoln IL
900 AM CST SAT FEB 24 2018

NOTE:  "FAIR" indicates few or no clouds below 12,000 feet, with
       no sigificant weather and/or obstructions to visibility.


CITY           SKY/WX    TMP DP  RH WIND       PRES   REMARKS
Bloomington    LGT RAIN  37  36  96 E22       30.06F FOG     WCI  26
Champaign      LGT RAIN  39  38  96 NE18      30.04F FOG     WCI  30
Danville       DRIZZLE   39  38  99 E9        30.07F WCI  32
Decatur        CLOUDY    39  39 100 E16       30.03F WCI  30
Effingham      RAIN      45  45 100 NE7G33    30.02R
Flora          RAIN      47  46  97 SE9       30.04F
Galesburg      MIX PCPN  33  33 100 E10       30.08F WCI  25
Jacksonville   DRIZZLE   37  36  97 NE8       30.05S WCI  30
Lacon          LGT RAIN  35  34  94 E12G18    30.09F WCI  27
Lawrenceville  LGT RAIN  48  47  96 SE12      30.07R FOG
Litchfield     CLOUDY    41  41  99 CALM      30.01F
$$


CITY           SKY/WX    TMP DP  RH WIND       PRES   REMARKS
Lincoln        RAIN      39  39 100 E15       30.05F WCI  30
Macomb         LGT RAIN N/A N/A N/A E8        30.09S
Mattoon        CLOUDY    43  42  97 E9        30.03F
Mt Carmel AP   LGT RAIN  47  46  97 E8        30.06R
Olney-Noble AP RAIN      46  44  93 E9        30.05F
Paris AP       DRIZZLE   41  41 100 NE8       30.08S
Peoria         LGT RAIN  36  35  96 E12       30.07F FOG     WCI  28
Pontiac        CLOUDY    37  36  99 E15       30.11F FOG     WCI  27
Rantoul        LGT RAIN  40  40  99 E13       30.09F WCI  32
Robinson       RAIN      45  45 100 SE9       30.06F
Springfield    LGT RAIN  39  38  96 E8        30.04S FOG     WCI  33
Taylorville    CLOUDY    39  39  99 E9        30.03F WCI  33
$$

...REGIONAL REPORTS...


CITY           SKY/WX    TMP DP  RH WIND       PRES   REMARKS
Chicago O`Hare CLOUDY    35  29  78 E10       30.16S WCI  27
Kankakee       DRIZZLE   37  35  92 E9        30.14F WCI  30
Moline         CLOUDY    34  32  92 E13       30.09F FOG     WCI  25
Mount Sterling DRIZZLE   33  33  99 NE7       30.04F WCI  27
Mount Vernon   LGT RAIN  47  46  97 E9        30.01F
Pittsfield     DRIZZLE   36  36 100 NE9       30.03F WCI  29
Quincy         NOT AVBL
Rockford       CLOUDY    32  27  81 E10       30.16S WCI  24
$$


CITY           SKY/WX    TMP DP  RH WIND       PRES   REMARKS
Burlington     FRZ RAIN  32  30  92 E9        30.05F FOG     WCI  24
Cedar Rapids   LGT SNOW  31  27  85 E13       30.07F WCI  21
Des Moines     FRZ RAIN  30  26  85 SE16G22   29.98F WCI  19
Kirksville     MIX PCPN  32  32 100 E14       29.99F VSB 1   WCI  22
Ottumwa        MIX PCPN  32  28  85 E15       30.02F FOG     WCI  22
St Louis       CLOUDY    43  42  97 N8        30.00F
$$


CITY           SKY/WX    TMP DP  RH WIND       PRES   REMARKS
Terre Haute    RAIN      44  44 100 E13       30.04F FOG
Evansville     LGT RAIN  49  49 100 E9        30.05F
Indianapolis   HVY RAIN  43  42  97 E10       30.10F FOG
Lafayette      CLOUDY    39  39 100 E12       30.12F FOG     WCI  32
Madison        CLOUDY    30  25  81 E13       30.16F WCI  20
Milwaukee      CLOUDY    34  28  79 E12       30.19S WCI  25
$$






USA.gov is the U.S. government's official web portal to all federal, state and local government web resources and services.